Charlevoix, MI

8:05 AM EDT on July 22, 2017 (GMT -0400)
Charlevoix Municipal

Weather History for KCVX - September, 2012

Change the Weather History Date:

Tuesday, September 18, 2012

  Actual Average Record
Temperature  
Mean Temperature 52 °F -  
Max Temperature 54 °F 69 °F 82 °F (2007)
Min Temperature 49 °F 52 °F 44 °F (2011)
Degree Days  
Heating Degree Days 14    
Growing Degree Days 2 (Base 50)    
Moisture  
Dew Point 43 °F    
Average Humidity 72    
Maximum Humidity 94    
Minimum Humidity 51    
Precipitation  
Precipitation 0.00 in - - ()
Sea Level Pressure  
Sea Level Pressure 29.81 in    
Wind  
Wind Speed 11 mph (North)    
Max Wind Speed 21 mph    
Max Gust Speed 30 mph    
Visibility 10 miles    
Events Rain    
Averages and records for this station are not official NWS values.
T = Trace of Precipitation, MM = Missing Value Source: NWS Daily Summary

Daily Weather History Graph

Daily Weather History Graph

Search for Another Location

Airport or City:

Trip Planner

Search our weather history database for the weather conditions in past years. The results will help you decide how hot, cold, wet, or windy it might be!

Date:

Astronomy

Sep. 18, 2012 Rise Set
Actual Time 7:23 AM EDT 7:45 PM EDT
Civil Twilight 6:54 AM EDT 8:14 PM EDT
Nautical Twilight 6:19 AM EDT 8:49 PM EDT
Astronomical Twilight 5:43 AM EDT 9:25 PM EDT
Moon 10:34 AM EDT (9/18) 8:55 PM EDT (9/18)
Length of Visible Light 13h 20m
Length of Day
12h 21m
Waxing Crescent, 9% of the Moon is Illuminated
Sep 18
Waxing Crescent
Sep 22
First Quarter
Sep 29
Full
Oct 8
Last Quarter
Oct 15
New

Hourly Weather History & Observations

Time (EDT) Temp. Dew Point Humidity Pressure Visibility Wind Dir Wind Speed Gust Speed Precip Events Conditions
12:14 AM 54.3 °F 50.2 °F 86% 29.78 in 10.0 mi NNE 10.4 mph 23.0 mph N/A Rain Light Rain
12:34 AM 54.0 °F 48.7 °F 82% 29.78 in 10.0 mi NNW 10.4 mph - N/A Rain Light Rain
12:54 AM 52.9 °F 50.9 °F 93% 29.78 in 10.0 mi NE 6.9 mph - N/A Rain Rain
1:14 AM 52.3 °F 50.5 °F 94% 29.77 in 10.0 mi ENE 5.8 mph - N/A Rain Light Rain
1:34 AM 52.7 °F 50.5 °F 92% 29.77 in 10.0 mi East 5.8 mph - N/A Rain Rain
1:54 AM 52.7 °F 50.4 °F 92% 29.77 in 10.0 mi ENE 3.5 mph - N/A   Light Drizzle
2:14 AM 52.7 °F 50.0 °F 91% 29.77 in 10.0 mi East 3.5 mph - N/A   Overcast
2:34 AM 52.7 °F 50.0 °F 91% 29.76 in 10.0 mi ENE 3.5 mph - N/A   Overcast
2:55 AM 52.9 °F 50.0 °F 90% 29.76 in 10.0 mi East 3.5 mph - N/A   Overcast
3:14 AM 52.9 °F 49.6 °F 89% 29.75 in 10.0 mi Calm Calm - N/A Rain Light Rain
3:34 AM 52.9 °F 49.6 °F 89% 29.74 in 10.0 mi Calm Calm - N/A Rain Light Rain
4:14 AM 53.8 °F 50.4 °F 88% 29.74 in 10.0 mi NW 11.5 mph 16.1 mph N/A   Overcast
4:34 AM 54.0 °F 50.7 °F 89% 29.74 in 10.0 mi NNE 8.1 mph - N/A Rain Rain
4:54 AM 52.7 °F 50.9 °F 94% 29.74 in 7.0 mi North 5.8 mph - N/A Rain Light Rain
5:14 AM 53.1 °F 51.1 °F 93% 29.74 in 7.0 mi NNE 10.4 mph 21.9 mph N/A Rain Heavy Rain
5:34 AM 52.7 °F 50.0 °F 91% 29.74 in 10.0 mi NNE 15.0 mph 18.4 mph N/A Rain Light Rain
5:54 AM 52.9 °F 49.6 °F 89% 29.74 in 5.0 mi North 16.1 mph 20.7 mph N/A Rain Heavy Rain
6:15 AM 53.6 °F 48.4 °F 82% 29.74 in 10.0 mi North 18.4 mph 27.6 mph N/A Rain Light Rain
6:34 AM 53.6 °F 48.0 °F 81% 29.74 in 10.0 mi North 18.4 mph 26.5 mph N/A   Overcast
6:54 AM 52.9 °F 46.4 °F 79% 29.75 in 10.0 mi North 19.6 mph 27.6 mph N/A Rain Light Rain
7:14 AM 53.1 °F 46.4 °F 78% 29.76 in 10.0 mi North 19.6 mph 25.3 mph N/A   Overcast
7:34 AM 52.9 °F 45.1 °F 75% 29.77 in 10.0 mi North 17.3 mph 27.6 mph N/A   Overcast
7:55 AM 52.3 °F 44.4 °F 74% 29.77 in 10.0 mi NNW 16.1 mph 27.6 mph N/A Rain Light Rain
8:14 AM 52.7 °F 44.2 °F 73% 29.78 in 10.0 mi North 17.3 mph 26.5 mph N/A   Overcast
8:34 AM 52.7 °F 43.5 °F 71% 29.78 in 10.0 mi North 16.1 mph 25.3 mph N/A   Mostly Cloudy
8:55 AM 52.9 °F 43.7 °F 71% 29.78 in 10.0 mi North 17.3 mph 25.3 mph N/A   Mostly Cloudy
9:14 AM 52.7 °F 42.3 °F 68% 29.78 in 10.0 mi North 16.1 mph 25.3 mph N/A   Overcast
9:34 AM 53.1 °F 42.3 °F 67% 29.79 in 10.0 mi North 17.3 mph 23.0 mph N/A   Mostly Cloudy
9:54 AM 53.4 °F 41.5 °F 64% 29.78 in 10.0 mi North 16.1 mph 26.5 mph N/A   Mostly Cloudy
10:14 AM 52.5 °F 43.2 °F 70% 29.78 in 10.0 mi North 15.0 mph 24.2 mph N/A   Overcast
10:34 AM 52.2 °F 43.3 °F 72% 29.79 in 10.0 mi North 17.3 mph 23.0 mph N/A   Overcast
10:54 AM 52.9 °F 44.8 °F 74% 29.79 in 10.0 mi NNW 16.1 mph 25.3 mph N/A   Overcast
11:14 AM 52.2 °F 43.9 °F 73% 29.79 in 7.0 mi NNW 11.5 mph 18.4 mph N/A Rain Light Rain
11:34 AM 53.1 °F 42.6 °F 68% 29.79 in 10.0 mi NNW 11.5 mph 23.0 mph N/A   Overcast
11:54 AM 54.1 °F 42.1 °F 64% 29.79 in 10.0 mi NNW 12.7 mph 19.6 mph N/A   Overcast
12:14 PM 54.1 °F 41.7 °F 63% 29.79 in 10.0 mi North 13.8 mph 20.7 mph N/A   Overcast
12:35 PM 52.5 °F 43.7 °F 72% 29.79 in 10.0 mi NW 17.3 mph 24.2 mph N/A   Overcast
12:54 PM 53.1 °F 44.4 °F 72% 29.80 in 10.0 mi NNW 15.0 mph 20.7 mph N/A   Mostly Cloudy
1:14 PM 49.3 °F 42.4 °F 77% 29.80 in 3.0 mi North 8.1 mph 21.9 mph N/A Rain Rain
1:35 PM 52.3 °F 45.5 °F 78% 29.80 in 10.0 mi NNW 11.5 mph 19.6 mph N/A   Overcast
1:54 PM 51.8 °F 43.2 °F 72% 29.80 in 10.0 mi WNW 17.3 mph 29.9 mph N/A   Overcast
2:14 PM 50.4 °F 44.1 °F 79% 29.80 in 10.0 mi NNW 18.4 mph 25.3 mph N/A Rain Light Rain
2:35 PM 52.0 °F 43.9 °F 74% 29.80 in 10.0 mi NNW 20.7 mph 27.6 mph N/A   Mostly Cloudy
3:14 PM 53.4 °F 41.2 °F 63% 29.81 in 10.0 mi NNW 20.7 mph 28.8 mph N/A   Mostly Cloudy
3:34 PM 52.7 °F 42.3 °F 68% 29.82 in 10.0 mi NNW 17.3 mph 25.3 mph N/A   Overcast
3:54 PM 52.9 °F 41.0 °F 64% 29.82 in 10.0 mi NNW 18.4 mph 25.3 mph N/A   Overcast
4:14 PM 51.8 °F 40.5 °F 65% 29.82 in 10.0 mi North 16.1 mph 21.9 mph N/A   Overcast
4:34 PM 50.2 °F 42.8 °F 76% 29.83 in 7.0 mi North 15.0 mph 24.2 mph N/A Rain Rain
4:54 PM 49.6 °F 43.0 °F 78% 29.84 in 10.0 mi North 13.8 mph 24.2 mph N/A Rain Light Rain
5:14 PM 51.3 °F 42.3 °F 71% 29.84 in 10.0 mi NNW 12.7 mph 21.9 mph N/A   Overcast
5:34 PM 52.0 °F 39.7 °F 63% 29.84 in 10.0 mi NNW 16.1 mph 21.9 mph N/A   Overcast
5:54 PM 53.6 °F 39.0 °F 58% 29.85 in 10.0 mi NNW 13.8 mph 24.2 mph N/A   Overcast
6:14 PM 53.2 °F 37.0 °F 54% 29.86 in 10.0 mi NNW 16.1 mph 28.8 mph N/A   Overcast
6:34 PM 51.4 °F 37.9 °F 60% 29.86 in 10.0 mi North 11.5 mph 19.6 mph N/A Rain Light Rain
6:53 PM 52.0 °F 38.8 °F 61% 29.86 in 10.0 mi North 16.1 mph 23.0 mph N/A   Mostly Cloudy
7:14 PM 52.5 °F 36.9 °F 55% 29.87 in 10.0 mi NW 15.0 mph 23.0 mph N/A   Overcast
7:34 PM 52.0 °F 36.3 °F 55% 29.87 in 10.0 mi North 13.8 mph 25.3 mph N/A   Mostly Cloudy
8:14 PM 51.6 °F 36.5 °F 56% 29.89 in 10.0 mi NNW 16.1 mph 21.9 mph N/A   Scattered Clouds
8:35 PM 51.8 °F 36.1 °F 55% 29.89 in 10.0 mi North 11.5 mph 17.3 mph N/A   Mostly Cloudy
8:54 PM 51.4 °F 36.0 °F 56% 29.90 in 10.0 mi NNW 15.0 mph - N/A   Light Drizzle
9:14 PM 52.0 °F 36.9 °F 56% 29.91 in 10.0 mi NNW 12.7 mph 17.3 mph N/A   Overcast
9:35 PM 51.8 °F 36.5 °F 56% 29.92 in 10.0 mi NW 13.8 mph 21.9 mph N/A   Overcast
9:54 PM 51.3 °F 37.4 °F 59% 29.92 in 10.0 mi NNW 11.5 mph 20.7 mph N/A   Mostly Cloudy
10:14 PM 50.9 °F 35.8 °F 56% 29.92 in 10.0 mi NNW 11.5 mph 18.4 mph N/A   Scattered Clouds
10:34 PM 50.7 °F 33.3 °F 51% 29.93 in 10.0 mi NNW 9.2 mph 20.7 mph N/A   Mostly Cloudy
10:54 PM 50.4 °F 34.9 °F 55% 29.93 in 10.0 mi NNW 8.1 mph - N/A   Scattered Clouds
11:15 PM 50.9 °F 35.6 °F 56% 29.94 in 10.0 mi NW 12.7 mph 18.4 mph N/A   Mostly Cloudy
11:54 PM 50.0 °F 32.9 °F 52% 29.94 in 10.0 mi NNW 9.2 mph - N/A   Mostly Cloudy